| time (UTC) | temp F | wind direction | speed MPH | gust MPH | rain 1hr in | rain 24hr in | rain mn in | humidity % | barometer mb |
| 20260507031458 | 50 | 114 | 5.0 | 6.0 | 0.00 | 0.00 | 0.00 | 89 | 1019.3 |
| 20260507031206 | 0 | 0.0 | 0.0 | 0.00 | 0.00 | 0.00 | |||
| 20260507030957 | 50 | 113 | 6.0 | 7.0 | 0.00 | 0.00 | 0.00 | 89 | 1019.3 |
| 20260507030706 | 0 | 0.0 | 0.0 | 0.00 | 0.00 | 0.00 | |||
| 20260507030457 | 50 | 103 | 6.0 | 8.0 | 0.00 | 0.00 | 0.00 | 89 | 1019.3 |
| 20260507030206 | 0 | 0.0 | 0.0 | 0.00 | 0.00 | 0.00 | |||
| 20260507025957 | 50 | 109 | 6.0 | 7.0 | 0.00 | 0.00 | 0.00 | 89 | 1019.2 |
| 20260507025706 | 0 | 0.0 | 0.0 | 0.00 | 0.00 | 0.00 | |||
| 20260507025458 | 51 | 112 | 6.0 | 8.0 | 0.00 | 0.00 | 0.00 | 89 | 1019.2 |
| 20260507025207 | 0 | 0.0 | 0.0 | 0.00 | 0.00 | 0.00 | |||
| 20260507024958 | 51 | 112 | 6.0 | 6.0 | 0.00 | 0.00 | 0.00 | 89 | 1019.3 |
| 20260507024706 | 0 | 0.0 | 0.0 | 0.00 | 0.00 | 0.00 | |||
| 20260507024457 | 51 | 111 | 6.0 | 8.0 | 0.00 | 0.00 | 0.00 | 89 | 1019.3 |
| 20260507024206 | 0 | 0.0 | 0.0 | 0.00 | 0.00 | 0.00 | |||
| 20260507023958 | 51 | 119 | 4.0 | 5.0 | 0.00 | 0.00 | 0.00 | 88 | 1019.4 |
| 20260507023458 | 51 | 113 | 5.0 | 6.0 | 0.00 | 0.00 | 0.00 | 89 | 1019.3 |
| 20260507022957 | 51 | 112 | 5.0 | 8.0 | 0.00 | 0.00 | 0.00 | 88 | 1019.3 |
| 20260507022704 | 0 | 0.0 | 0.0 | 0.00 | 0.00 | 0.00 | |||
| 20260507022459 | 51 | 104 | 6.0 | 7.0 | 0.00 | 0.00 | 0.00 | 88 | 1019.3 |
| 20260507022203 | 0 | 0.0 | 0.0 | 0.00 | 0.00 | 0.00 | |||
| 20260507021957 | 51 | 111 | 5.0 | 8.0 | 0.00 | 0.00 | 0.00 | 88 | 1019.4 |
| 20260507021704 | 0 | 0.0 | 0.0 | 0.00 | 0.00 | 0.00 | |||
| 20260507021459 | 51 | 104 | 6.0 | 7.0 | 0.00 | 0.00 | 0.00 | 88 | 1019.4 |
| 20260507021204 | 0 | 0.0 | 0.0 | 0.00 | 0.00 | 0.00 | |||
| 20260507020957 | 51 | 95 | 6.0 | 9.0 | 0.00 | 0.00 | 0.00 | 89 | 1019.4 |
| 20260507020704 | 0 | 0.0 | 0.0 | 0.00 | 0.00 | 0.00 | |||
| 20260507020457 | 51 | 108 | 5.0 | 6.0 | 0.00 | 0.00 | 0.00 | 88 | 1019.4 |
| 20260507020204 | 0 | 0.0 | 0.0 | 0.00 | 0.00 | 0.00 | |||
| 20260507015958 | 51 | 115 | 5.0 | 6.0 | 0.00 | 0.00 | 0.00 | 88 | 1019.5 |
| 20260507015704 | 0 | 0.0 | 0.0 | 0.00 | 0.00 | 0.00 | |||
| 20260507015457 | 51 | 118 | 4.0 | 6.0 | 0.00 | 0.00 | 0.00 | 88 | 1019.5 |
| 20260507014957 | 51 | 111 | 5.0 | 7.0 | 0.00 | 0.00 | 0.00 | 88 | 1019.5 |
| 20260507014457 | 51 | 113 | 5.0 | 6.0 | 0.00 | 0.00 | 0.00 | 88 | 1019.5 |
| 20260507014204 | 0 | 0.0 | 0.0 | 0.00 | 0.00 | 0.00 | |||
| 20260507013957 | 51 | 119 | 4.0 | 6.0 | 0.00 | 0.00 | 0.00 | 88 | 1019.5 |
| 20260507013457 | 51 | 114 | 5.0 | 6.0 | 0.00 | 0.00 | 0.00 | 88 | 1019.5 |
| 20260507012957 | 51 | 114 | 4.0 | 5.0 | 0.00 | 0.00 | 0.00 | 88 | 1019.4 |
| 20260507012458 | 51 | 114 | 5.0 | 6.0 | 0.00 | 0.00 | 0.00 | 88 | 1019.4 |
| 20260507012202 | 0 | 0.0 | 0.0 | 0.00 | 0.00 | 0.00 | |||
| 20260507011957 | 51 | 116 | 4.0 | 6.0 | 0.00 | 0.00 | 0.00 | 87 | 1019.4 |
| 20260507011702 | 0 | 0.0 | 0.0 | 0.00 | 0.00 | 0.00 | |||
| 20260507011457 | 51 | 118 | 4.0 | 4.0 | 0.00 | 0.00 | 0.00 | 88 | 1019.4 |
| 20260507011201 | 0 | 0.0 | 0.0 | 0.00 | 0.00 | 0.00 | |||
| 20260507010957 | 51 | 114 | 4.0 | 6.0 | 0.00 | 0.00 | 0.00 | 88 | 1019.4 |
| 20260507010457 | 51 | 114 | 4.0 | 5.0 | 0.00 | 0.00 | 0.00 | 87 | 1019.4 |
| 20260507010202 | 0 | 0.0 | 0.0 | 0.00 | 0.00 | 0.00 | |||
| 20260507005957 | 51 | 112 | 4.0 | 5.0 | 0.00 | 0.00 | 0.00 | 88 | 1019.4 |
| 20260507005702 | 0 | 0.0 | 0.0 | 0.00 | 0.00 | 0.00 | |||
| 20260507005457 | 51 | 119 | 4.0 | 5.0 | 0.00 | 0.00 | 0.00 | 87 | 1019.4 |
| 20260507004957 | 51 | 108 | 4.0 | 8.0 | 0.00 | 0.00 | 0.00 | 87 | 1019.5 |
| 20260507004700 | 0 | 0.0 | 0.0 | 0.00 | 0.00 | 0.00 | |||
| 20260507004457 | 51 | 127 | 4.0 | 5.0 | 0.00 | 0.00 | 0.00 | 87 | 1019.5 |
| 20260507004159 | 0 | 0.0 | 0.0 | 0.00 | 0.00 | 0.00 | |||
| 20260507003957 | 52 | 114 | 5.0 | 6.0 | 0.00 | 0.00 | 0.00 | 87 | 1019.5 |
| 20260507003657 | 0 | 0.0 | 0.0 | 0.00 | 0.00 | 0.00 | |||
| 20260507003457 | 52 | 112 | 5.0 | 6.0 | 0.00 | 0.00 | 0.00 | 87 | 1019.5 |
| 20260507003157 | 0 | 0.0 | 0.0 | 0.00 | 0.00 | 0.00 | |||
| 20260507002957 | 52 | 117 | 6.0 | 8.0 | 0.00 | 0.00 | 0.00 | 86 | 1019.5 |
| 20260507002657 | 0 | 0.0 | 0.0 | 0.00 | 0.00 | 0.00 | |||
| 20260507002457 | 52 | 121 | 4.0 | 5.0 | 0.00 | 0.00 | 0.00 | 87 | 1019.5 |
| 20260507002158 | 0 | 0.0 | 0.0 | 0.00 | 0.00 | 0.00 | |||
| 20260507001959 | 52 | 118 | 4.0 | 5.0 | 0.00 | 0.00 | 0.00 | 86 | 1019.5 |
| 20260507001657 | 0 | 0.0 | 0.0 | 0.00 | 0.00 | 0.00 | |||
| 20260507001458 | 52 | 123 | 4.0 | 5.0 | 0.00 | 0.00 | 0.00 | 86 | 1019.4 |
| 20260507001157 | 0 | 0.0 | 0.0 | 0.00 | 0.00 | 0.00 | |||
| 20260507000958 | 52 | 116 | 5.0 | 6.0 | 0.00 | 0.00 | 0.00 | 86 | 1019.4 |
| 20260507000657 | 0 | 0.0 | 0.0 | 0.00 | 0.00 | 0.00 | |||
| 20260507000457 | 52 | 112 | 6.0 | 9.0 | 0.00 | 0.00 | 0.00 | 86 | 1019.4 |
| 20260507000158 | 0 | 0.0 | 0.0 | 0.00 | 0.00 | 0.00 | |||
| 20260506235958 | 52 | 120 | 5.0 | 6.0 | 0.00 | 0.00 | 0.00 | 86 | 1019.4 |
| 20260506235657 | 0 | 0.0 | 0.0 | 0.00 | 0.00 | 0.00 | |||
| 20260506235457 | 52 | 122 | 5.0 | 8.0 | 0.00 | 0.00 | 0.00 | 85 | 1019.4 |
| 20260506235158 | 0 | 0.0 | 0.0 | 0.00 | 0.00 | 0.00 | |||
| 20260506234957 | 52 | 124 | 4.0 | 5.0 | 0.00 | 0.00 | 0.00 | 86 | 1019.4 |
| 20260506234458 | 52 | 118 | 5.0 | 6.0 | 0.00 | 0.00 | 0.00 | 85 | 1019.2 |
| 20260506234155 | 0 | 0.0 | 0.0 | 0.00 | 0.00 | 0.00 | |||
| 20260506233958 | 52 | 120 | 5.0 | 6.0 | 0.00 | 0.00 | 0.00 | 84 | 1019.3 |
| 20260506233654 | 0 | 0.0 | 0.0 | 0.00 | 0.00 | 0.00 | |||
| 20260506233458 | 53 | 126 | 4.0 | 5.0 | 0.00 | 0.00 | 0.00 | 84 | 1019.3 |
| 20260506233155 | 0 | 0.0 | 0.0 | 0.00 | 0.00 | 0.00 | |||
| 20260506232957 | 53 | 134 | 4.0 | 5.0 | 0.00 | 0.00 | 0.00 | 84 | 1019.3 |
| 20260506232655 | 0 | 0.0 | 0.0 | 0.00 | 0.00 | 0.00 | |||
| 20260506232457 | 53 | 112 | 6.0 | 7.0 | 0.00 | 0.00 | 0.00 | 83 | 1019.4 |
| 20260506231957 | 53 | 126 | 5.0 | 6.0 | 0.00 | 0.00 | 0.00 | 83 | 1019.4 |
| 20260506231654 | 0 | 0.0 | 0.0 | 0.00 | 0.00 | 0.00 | |||
| 20260506231457 | 53 | 116 | 6.0 | 7.0 | 0.00 | 0.00 | 0.00 | 82 | 1019.4 |
| 20260506231155 | 0 | 0.0 | 0.0 | 0.00 | 0.00 | 0.00 | |||
| 20260506230958 | 53 | 121 | 4.0 | 6.0 | 0.00 | 0.00 | 0.00 | 83 | 1019.4 |
| 20260506230655 | 0 | 0.0 | 0.0 | 0.00 | 0.00 | 0.00 | |||
| 20260506230457 | 53 | 120 | 6.0 | 7.0 | 0.00 | 0.00 | 0.00 | 82 | 1019.7 |
| 20260506230153 | 0 | 0.0 | 0.0 | 0.00 | 0.00 | 0.00 | |||
| 20260506225957 | 53 | 114 | 7.0 | 12.0 | 0.00 | 0.00 | 0.00 | 82 | 1019.4 |
| 20260506225653 | 0 | 0.0 | 0.0 | 0.00 | 0.00 | 0.00 | |||
| 20260506225458 | 53 | 121 | 5.0 | 7.0 | 0.00 | 0.00 | 0.00 | 83 | 1019.5 |
| 20260506225153 | 0 | 0.0 | 0.0 | 0.00 | 0.00 | 0.00 | |||
| 20260506224957 | 53 | 129 | 5.0 | 7.0 | 0.00 | 0.00 | 0.00 | 83 | 1019.7 |
| 20260506224653 | 0 | 0.0 | 0.0 | 0.00 | 0.00 | 0.00 | |||
| 20260506224457 | 53 | 130 | 4.0 | 5.0 | 0.00 | 0.00 | 0.00 | 83 | 1019.7 |
| 20260506224152 | 0 | 0.0 | 0.0 | 0.00 | 0.00 | 0.00 | |||
| 20260506223957 | 53 | 107 | 7.0 | 11.0 | 0.00 | 0.00 | 0.00 | 83 | 1019.7 |
| 20260506223653 | 0 | 0.0 | 0.0 | 0.00 | 0.00 | 0.00 | |||
| 20260506223457 | 52 | 121 | 5.0 | 7.0 | 0.00 | 0.00 | 0.00 | 83 | 1019.7 |
| 20260506223153 | 0 | 0.0 | 0.0 | 0.00 | 0.00 | 0.00 | |||
| 20260506222957 | 52 | 117 | 6.0 | 8.0 | 0.00 | 0.00 | 0.00 | 83 | 1019.8 |
| 20260506222457 | 52 | 122 | 4.0 | 5.0 | 0.00 | 0.00 | 0.00 | 83 | 1019.8 |
| 20260506222153 | 0 | 0.0 | 0.0 | 0.00 | 0.00 | 0.00 | |||
| 20260506221957 | 52 | 120 | 6.0 | 8.0 | 0.00 | 0.00 | 0.00 | 83 | 1019.8 |
| 20260506221653 | 0 | 0.0 | 0.0 | 0.00 | 0.00 | 0.00 | |||
| 20260506221459 | 52 | 126 | 4.0 | 6.0 | 0.00 | 0.00 | 0.00 | 83 | 1019.8 |
| 20260506221153 | 0 | 0.0 | 0.0 | 0.00 | 0.00 | 0.00 | |||
| 20260506220957 | 52 | 122 | 5.0 | 6.0 | 0.00 | 0.00 | 0.00 | 83 | 1019.8 |
| 20260506220652 | 0 | 0.0 | 0.0 | 0.00 | 0.00 | 0.00 | |||
| 20260506220458 | 52 | 124 | 5.0 | 6.0 | 0.00 | 0.00 | 0.00 | 83 | 1019.7 |
| 20260506220153 | 0 | 0.0 | 0.0 | 0.00 | 0.00 | 0.00 | |||
| 20260506215957 | 52 | 123 | 5.0 | 6.0 | 0.00 | 0.00 | 0.00 | 83 | 1019.7 |
| 20260506215653 | 0 | 0.0 | 0.0 | 0.00 | 0.00 | 0.00 | |||
| 20260506215457 | 53 | 121 | 4.0 | 5.0 | 0.00 | 0.00 | 0.00 | 83 | 1019.8 |
| 20260506215150 | 0 | 0.0 | 0.0 | 0.00 | 0.00 | 0.00 | |||
| 20260506214957 | 53 | 122 | 5.0 | 6.0 | 0.00 | 0.00 | 0.00 | 82 | 1019.8 |
| 20260506214651 | 0 | 0.0 | 0.0 | 0.00 | 0.00 | 0.00 | |||
| 20260506214458 | 52 | 119 | 5.0 | 6.0 | 0.00 | 0.00 | 0.00 | 83 | 1019.8 |
| 20260506214147 | 0 | 0.0 | 0.0 | 0.00 | 0.00 | 0.00 | |||
| 20260506213958 | 52 | 119 | 4.0 | 5.0 | 0.00 | 0.00 | 0.00 | 84 | 1019.7 |
| 20260506213648 | 0 | 0.0 | 0.0 | 0.00 | 0.00 | 0.00 | |||
| 20260506213457 | 52 | 123 | 5.0 | 8.0 | 0.00 | 0.00 | 0.00 | 84 | 1019.8 |
| 20260506213148 | 0 | 0.0 | 0.0 | 0.00 | 0.00 | 0.00 | |||
| 20260506212958 | 52 | 130 | 5.0 | 6.0 | 0.00 | 0.00 | 0.00 | 84 | 1019.9 |
| 20260506212647 | 0 | 0.0 | 0.0 | 0.00 | 0.00 | 0.00 | |||
| 20260506212458 | 52 | 121 | 5.0 | 7.0 | 0.00 | 0.00 | 0.00 | 84 | 1019.9 |
| 20260506212148 | 0 | 0.0 | 0.0 | 0.00 | 0.00 | 0.00 | |||
| 20260506211958 | 52 | 151 | 4.0 | 8.0 | 0.00 | 0.00 | 0.00 | 84 | 1019.9 |
| 20260506211648 | 0 | 0.0 | 0.0 | 0.00 | 0.00 | 0.00 | |||
| 20260506211458 | 53 | 126 | 4.0 | 6.0 | 0.00 | 0.00 | 0.00 | 83 | 1019.8 |
| 20260506211148 | 0 | 0.0 | 0.0 | 0.00 | 0.00 | 0.00 | |||
| 20260506210958 | 53 | 122 | 5.0 | 6.0 | 0.00 | 0.00 | 0.00 | 83 | 1019.9 |
| 20260506210648 | 0 | 0.0 | 0.0 | 0.00 | 0.00 | 0.00 | |||
| 20260506210457 | 53 | 149 | 5.0 | 6.0 | 0.00 | 0.00 | 0.00 | 82 | 1019.9 |
| 20260506205958 | 53 | 139 | 4.0 | 6.0 | 0.00 | 0.00 | 0.00 | 82 | 1019.8 |
| 20260506205648 | 0 | 0.0 | 0.0 | 0.00 | 0.00 | 0.00 | |||
| 20260506205457 | 53 | 135 | 4.0 | 6.0 | 0.00 | 0.00 | 0.00 | 82 | 1019.9 |
| 20260506205148 | 0 | 0.0 | 0.0 | 0.00 | 0.00 | 0.00 | |||
| 20260506204958 | 53 | 146 | 4.0 | 5.0 | 0.00 | 0.00 | 0.00 | 82 | 1019.9 |
| 20260506204646 | 0 | 0.0 | 0.0 | 0.00 | 0.00 | 0.00 | |||
| 20260506204457 | 54 | 119 | 5.0 | 6.0 | 0.00 | 0.00 | 0.00 | 82 | 1019.8 |
| 20260506204146 | 0 | 0.0 | 0.0 | 0.00 | 0.00 | 0.00 | |||
| 20260506203957 | 54 | 128 | 3.0 | 4.0 | 0.00 | 0.00 | 0.00 | 82 | 1019.8 |
| 20260506203646 | 0 | 0.0 | 0.0 | 0.00 | 0.00 | 0.00 | |||
| 20260506203457 | 55 | 153 | 5.0 | 8.0 | 0.00 | 0.00 | 0.00 | 80 | 1019.9 |
| 20260506203146 | 0 | 0.0 | 0.0 | 0.00 | 0.00 | 0.00 | |||
| 20260506202957 | 54 | 155 | 5.0 | 6.0 | 0.00 | 0.00 | 0.00 | 82 | 1019.8 |
| 20260506202646 | 0 | 0.0 | 0.0 | 0.00 | 0.00 | 0.00 | |||
| 20260506202457 | 54 | 159 | 5.0 | 9.0 | 0.00 | 0.00 | 0.00 | 81 | 1019.5 |
| 20260506202146 | 0 | 0.0 | 0.0 | 0.00 | 0.00 | 0.00 | |||
| 20260506201958 | 54 | 131 | 4.0 | 7.0 | 0.00 | 0.00 | 0.00 | 81 | 1019.7 |
| 20260506201645 | 0 | 0.0 | 0.0 | 0.00 | 0.00 | 0.00 | |||
| 20260506201457 | 54 | 148 | 6.0 | 9.0 | 0.00 | 0.00 | 0.00 | 81 | 1019.5 |
| 20260506201146 | 0 | 0.0 | 0.0 | 0.00 | 0.00 | 0.00 | |||
| 20260506200957 | 53 | 144 | 4.0 | 5.0 | 0.00 | 0.00 | 0.00 | 82 | 1019.7 |
| 20260506200645 | 0 | 0.0 | 0.0 | 0.00 | 0.00 | 0.00 | |||
| 20260506200458 | 53 | 155 | 4.0 | 4.0 | 0.00 | 0.00 | 0.00 | 82 | 1019.8 |
| 20260506200144 | 0 | 0.0 | 0.0 | 0.00 | 0.00 | 0.00 | |||
| 20260506195957 | 53 | 149 | 4.0 | 7.0 | 0.00 | 0.00 | 0.00 | 83 | 1019.9 |
| 20260506195645 | 0 | 0.0 | 0.0 | 0.00 | 0.00 | 0.00 | |||
| 20260506195457 | 53 | 160 | 5.0 | 7.0 | 0.00 | 0.00 | 0.00 | 83 | 1019.7 |
| 20260506195144 | 0 | 0.0 | 0.0 | 0.00 | 0.00 | 0.00 | |||
| 20260506194958 | 52 | 149 | 5.0 | 7.0 | 0.00 | 0.00 | 0.00 | 84 | 1019.7 |
| 20260506194643 | 0 | 0.0 | 0.0 | 0.00 | 0.00 | 0.00 | |||
| 20260506194459 | 52 | 150 | 4.0 | 7.0 | 0.00 | 0.00 | 0.00 | 84 | 1019.7 |
| 20260506193957 | 52 | 132 | 4.0 | 5.0 | 0.00 | 0.00 | 0.00 | 85 | 1019.7 |
| 20260506193641 | 0 | 0.0 | 0.0 | 0.00 | 0.00 | 0.00 | |||
| 20260506193457 | 51 | 145 | 5.0 | 6.0 | 0.00 | 0.00 | 0.00 | 85 | 1019.7 |
| 20260506193140 | 0 | 0.0 | 0.0 | 0.00 | 0.00 | 0.00 | |||
| 20260506192957 | 52 | 156 | 6.0 | 8.0 | 0.00 | 0.00 | 0.00 | 85 | 1019.7 |
| 20260506192458 | 52 | 162 | 7.0 | 11.0 | 0.00 | 0.00 | 0.00 | 84 | 1019.5 |
| 20260506192141 | 0 | 0.0 | 0.0 | 0.00 | 0.00 | 0.00 | |||
| 20260506191957 | 52 | 138 | 4.0 | 6.0 | 0.00 | 0.00 | 0.00 | 84 | 1019.4 |
| 20260506191641 | 0 | 0.0 | 0.0 | 0.00 | 0.00 | 0.00 | |||
| 20260506191457 | 52 | 143 | 5.0 | 7.0 | 0.00 | 0.00 | 0.00 | 85 | 1019.5 |
| 20260506191141 | 0 | 0.0 | 0.0 | 0.00 | 0.00 | 0.00 | |||
| 20260506190957 | 51 | 128 | 4.0 | 6.0 | 0.00 | 0.00 | 0.00 | 85 | 1019.4 |
| 20260506190641 | 0 | 0.0 | 0.0 | 0.00 | 0.00 | 0.00 | |||
| 20260506190458 | 51 | 164 | 4.0 | 6.0 | 0.00 | 0.00 | 0.00 | 86 | 1019.4 |
| 20260506190141 | 0 | 0.0 | 0.0 | 0.00 | 0.00 | 0.00 | |||
| 20260506185957 | 51 | 141 | 4.0 | 6.0 | 0.00 | 0.00 | 0.00 | 87 | 1019.2 |
| 20260506185458 | 51 | 148 | 4.0 | 7.0 | 0.00 | 0.00 | 0.00 | 87 | 1019.2 |
| 20260506185141 | 0 | 0.0 | 0.0 | 0.00 | 0.00 | 0.00 | |||
| 20260506184958 | 50 | 145 | 5.0 | 8.0 | 0.00 | 0.00 | 0.00 | 87 | 1019.2 |
| 20260506184641 | 0 | 0.0 | 0.0 | 0.00 | 0.00 | 0.00 | |||
| 20260506184457 | 50 | 121 | 5.0 | 6.0 | 0.00 | 0.00 | 0.00 | 88 | 1019.2 |
| 20260506184138 | 0 | 0.0 | 0.0 | 0.00 | 0.00 | 0.00 | |||
| 20260506184001 | 49 | 110 | 5.0 | 7.0 | 0.00 | 0.00 | 0.00 | 89 | 1019.3 |
| 20260506183638 | 0 | 0.0 | 0.0 | 0.00 | 0.00 | 0.00 | |||
| 20260506183457 | 49 | 132 | 6.0 | 9.0 | 0.00 | 0.00 | 0.00 | 89 | 1019.3 |
| 20260506182957 | 49 | 153 | 6.0 | 8.0 | 0.00 | 0.00 | 0.00 | 89 | 1019.4 |
| 20260506182458 | 49 | 142 | 5.0 | 8.0 | 0.00 | 0.00 | 0.00 | 90 | 1019.5 |
| 20260506181958 | 49 | 137 | 6.0 | 8.0 | 0.00 | 0.00 | 0.00 | 90 | 1019.4 |
| 20260506181638 | 0 | 0.0 | 0.0 | 0.00 | 0.00 | 0.00 | |||
| 20260506181458 | 49 | 135 | 4.0 | 5.0 | 0.00 | 0.00 | 0.00 | 90 | 1019.2 |
| 20260506181139 | 0 | 0.0 | 0.0 | 0.00 | 0.00 | 0.00 | |||
| 20260506180957 | 49 | 124 | 5.0 | 6.0 | 0.00 | 0.00 | 0.00 | 90 | 1019.2 |
| 20260506180458 | 49 | 122 | 4.0 | 5.0 | 0.00 | 0.00 | 0.00 | 90 | 1019.1 |
| 20260506180140 | 0 | 0.0 | 0.0 | 0.00 | 0.00 | 0.00 | |||
| 20260506175958 | 49 | 141 | 5.0 | 7.0 | 0.00 | 0.00 | 0.00 | 91 | 1019.1 |
| 20260506175640 | 0 | 0.0 | 0.0 | 0.00 | 0.00 | 0.00 | |||
| 20260506175458 | 49 | 129 | 4.0 | 6.0 | 0.00 | 0.00 | 0.00 | 90 | 1019.2 |
| 20260506175139 | 0 | 0.0 | 0.0 | 0.00 | 0.00 | 0.00 | |||
| 20260506174957 | 49 | 127 | 5.0 | 7.0 | 0.00 | 0.00 | 0.00 | 90 | 1019.2 |
| 20260506174458 | 49 | 141 | 5.0 | 7.0 | 0.00 | 0.00 | 0.00 | 90 | 1019.2 |
| 20260506174137 | 0 | 0.0 | 0.0 | 0.00 | 0.00 | 0.00 | |||
| 20260506173957 | 49 | 130 | 4.0 | 6.0 | 0.00 | 0.00 | 0.00 | 90 | 1019.2 |
| 20260506173637 | 0 | 0.0 | 0.0 | 0.00 | 0.00 | 0.00 | |||
| 20260506173457 | 49 | 132 | 5.0 | 7.0 | 0.00 | 0.00 | 0.00 | 91 | 1019.1 |
| 20260506173136 | 0 | 0.0 | 0.0 | 0.00 | 0.00 | 0.00 | |||
| 20260506172958 | 49 | 166 | 6.0 | 7.0 | 0.00 | 0.00 | 0.00 | 91 | 1019.1 |
| 20260506172636 | 0 | 0.0 | 0.0 | 0.00 | 0.00 | 0.00 | |||
| 20260506172457 | 49 | 155 | 5.0 | 6.0 | 0.00 | 0.00 | 0.00 | 91 | 1019.0 |
| 20260506172137 | 0 | 0.0 | 0.0 | 0.00 | 0.00 | 0.00 | |||
| 20260506171958 | 49 | 137 | 4.0 | 5.0 | 0.00 | 0.00 | 0.00 | 91 | 1018.9 |
| 20260506171637 | 0 | 0.0 | 0.0 | 0.00 | 0.00 | 0.00 | |||
| 20260506171457 | 49 | 137 | 3.0 | 4.0 | 0.00 | 0.00 | 0.00 | 91 | 1018.8 |
| 20260506171137 | 0 | 0.0 | 0.0 | 0.00 | 0.00 | 0.00 | |||
| 20260506170958 | 49 | 148 | 4.0 | 6.0 | 0.00 | 0.00 | 0.00 | 92 | 1018.8 |
| 20260506170637 | 0 | 0.0 | 0.0 | 0.00 | 0.00 | 0.00 | |||
| 20260506170458 | 49 | 125 | 4.0 | 5.0 | 0.00 | 0.00 | 0.00 | 92 | 1018.8 |
| 20260506170137 | 0 | 0.0 | 0.0 | 0.00 | 0.00 | 0.00 | |||
| 20260506165957 | 49 | 134 | 4.0 | 6.0 | 0.00 | 0.00 | 0.00 | 92 | 1018.8 |
| 20260506165632 | 0 | 0.0 | 0.0 | 0.00 | 0.00 | 0.00 | |||
| 20260506165458 | 49 | 131 | 4.0 | 5.0 | 0.00 | 0.00 | 0.00 | 92 | 1018.6 |
| 20260506164957 | 48 | 128 | 4.0 | 4.0 | 0.00 | 0.00 | 0.00 | 93 | 1018.6 |
| 20260506164632 | 0 | 0.0 | 0.0 | 0.00 | 0.00 | 0.00 | |||
| 20260506164457 | 48 | 109 | 6.0 | 8.0 | 0.00 | 0.00 | 0.00 | 93 | 1018.6 |
| 20260506163958 | 48 | 126 | 5.0 | 7.0 | 0.00 | 0.00 | 0.00 | 92 | 1018.7 |
| 20260506163632 | 0 | 0.0 | 0.0 | 0.00 | 0.00 | 0.00 | |||
| 20260506163458 | 48 | 115 | 5.0 | 7.0 | 0.00 | 0.00 | 0.00 | 92 | 1018.7 |
| 20260506163133 | 0 | 0.0 | 0.0 | 0.00 | 0.00 | 0.00 | |||
| 20260506162957 | 49 | 124 | 6.0 | 7.0 | 0.00 | 0.00 | 0.00 | 92 | 1018.7 |
| 20260506162630 | 0 | 0.0 | 0.0 | 0.00 | 0.00 | 0.00 | |||
| 20260506162458 | 49 | 127 | 4.0 | 6.0 | 0.00 | 0.00 | 0.00 | 92 | 1018.7 |
| 20260506162129 | 0 | 0.0 | 0.0 | 0.00 | 0.00 | 0.00 | |||
| 20260506162002 | 49 | 128 | 4.0 | 6.0 | 0.00 | 0.00 | 0.00 | 92 | 1018.6 |
| 20260506161630 | 0 | 0.0 | 0.0 | 0.00 | 0.00 | 0.00 | |||
| 20260506161457 | 49 | 110 | 7.0 | 9.0 | 0.00 | 0.00 | 0.00 | 92 | 1018.7 |
| 20260506161130 | 0 | 0.0 | 0.0 | 0.00 | 0.00 | 0.00 | |||
| 20260506160958 | 49 | 138 | 4.0 | 5.0 | 0.00 | 0.00 | 0.00 | 92 | 1018.7 |
| 20260506160630 | 0 | 0.0 | 0.0 | 0.00 | 0.00 | 0.00 | |||
| 20260506160458 | 49 | 110 | 6.0 | 7.0 | 0.00 | 0.00 | 0.00 | 92 | 1018.7 |
| 20260506155957 | 49 | 119 | 4.0 | 5.0 | 0.00 | 0.00 | 0.00 | 92 | 1018.8 |
| 20260506155630 | 0 | 0.0 | 0.0 | 0.00 | 0.00 | 0.00 | |||
| 20260506155458 | 49 | 139 | 3.0 | 4.0 | 0.00 | 0.00 | 0.00 | 92 | 1018.8 |
| 20260506155130 | 0 | 0.0 | 0.0 | 0.00 | 0.00 | 0.00 | |||
| 20260506154958 | 49 | 128 | 3.0 | 5.0 | 0.00 | 0.00 | 0.00 | 92 | 1018.8 |
| 20260506154631 | 0 | 0.0 | 0.0 | 0.00 | 0.00 | 0.00 | |||
| 20260506154459 | 49 | 133 | 3.0 | 5.0 | 0.00 | 0.00 | 0.00 | 93 | 1018.8 |
| 20260506154130 | 0 | 0.0 | 0.0 | 0.00 | 0.00 | 0.00 | |||
| 20260506153959 | 48 | 130 | 4.0 | 6.0 | 0.00 | 0.00 | 0.00 | 92 | 1018.8 |
| 20260506153630 | 0 | 0.0 | 0.0 | 0.00 | 0.00 | 0.00 | |||
| 20260506153458 | 48 | 115 | 5.0 | 8.0 | 0.00 | 0.00 | 0.00 | 93 | 1018.9 |
| 20260506153127 | 0 | 0.0 | 0.0 | 0.00 | 0.00 | 0.00 | |||
| 20260506152958 | 48 | 121 | 4.0 | 6.0 | 0.00 | 0.00 | 0.00 | 92 | 1018.8 |
| 20260506152628 | 0 | 0.0 | 0.0 | 0.00 | 0.00 | 0.00 | |||
| 20260506152457 | 48 | 119 | 4.0 | 6.0 | 0.00 | 0.00 | 0.00 | 92 | 1018.8 |
| 20260506152124 | 0 | 0.0 | 0.0 | 0.00 | 0.00 | 0.00 | |||
| 20260506151957 | 48 | 100 | 5.0 | 7.0 | 0.00 | 0.00 | 0.00 | 92 | 1018.7 |
| 20260506151625 | 0 | 0.0 | 0.0 | 0.00 | 0.00 | 0.00 | |||
| 20260506151457 | 48 | 128 | 4.0 | 5.0 | 0.00 | 0.00 | 0.00 | 93 | 1018.7 |
| 20260506151125 | 0 | 0.0 | 0.0 | 0.00 | 0.00 | 0.00 | |||
| 20260506150959 | 48 | 106 | 6.0 | 9.0 | 0.00 | 0.00 | 0.00 | 93 | 1018.6 |
| 20260506150458 | 48 | 113 | 6.0 | 8.0 | 0.00 | 0.00 | 0.00 | 93 | 1018.6 |
| 20260506150125 | 0 | 0.0 | 0.0 | 0.00 | 0.00 | 0.00 | |||
| 20260506150001 | 48 | 115 | 5.0 | 6.0 | 0.00 | 0.00 | 0.00 | 93 | 1018.6 |
| 20260506145625 | 0 | 0.0 | 0.0 | 0.00 | 0.00 | 0.00 | |||
| 20260506145458 | 48 | 116 | 6.0 | 8.0 | 0.00 | 0.00 | 0.00 | 93 | 1018.5 |
| 20260506145124 | 0 | 0.0 | 0.0 | 0.00 | 0.00 | 0.00 | |||
| 20260506144959 | 48 | 114 | 7.0 | 9.0 | 0.00 | 0.00 | 0.00 | 93 | 1018.4 |
| 20260506144457 | 48 | 108 | 8.0 | 9.0 | 0.00 | 0.00 | 0.00 | 93 | 1018.3 |
| 20260506143958 | 47 | 127 | 6.0 | 8.0 | 0.00 | 0.00 | 0.00 | 93 | 1018.3 |
| 20260506143625 | 0 | 0.0 | 0.0 | 0.00 | 0.00 | 0.00 | |||
| 20260506143457 | 47 | 123 | 6.0 | 8.0 | 0.00 | 0.00 | 0.00 | 93 | 1018.1 |
| 20260506143125 | 0 | 0.0 | 0.0 | 0.00 | 0.00 | 0.00 | |||
| 20260506142957 | 47 | 115 | 6.0 | 8.0 | 0.00 | 0.00 | 0.00 | 93 | 1018.0 |
| 20260506142623 | 0 | 0.0 | 0.0 | 0.00 | 0.00 | 0.00 | |||
| 20260506142458 | 47 | 121 | 6.0 | 7.0 | 0.00 | 0.00 | 0.00 | 93 | 1018.1 |
| 20260506142119 | 0 | 0.0 | 0.0 | 0.00 | 0.00 | 0.00 | |||
| 20260506141958 | 47 | 112 | 6.0 | 7.0 | 0.00 | 0.00 | 0.00 | 93 | 1018.0 |
| 20260506141619 | 0 | 0.0 | 0.0 | 0.00 | 0.00 | 0.00 | |||
| 20260506141500 | 47 | 116 | 7.0 | 9.0 | 0.00 | 0.00 | 0.00 | 93 | 1018.0 |
| 20260506141120 | 0 | 0.0 | 0.0 | 0.00 | 0.00 | 0.00 | |||
| 20260506140958 | 47 | 121 | 5.0 | 8.0 | 0.00 | 0.00 | 0.00 | 94 | 1018.0 |
| 20260506140620 | 0 | 0.0 | 0.0 | 0.00 | 0.00 | 0.00 | |||
| 20260506140458 | 47 | 116 | 7.0 | 9.0 | 0.00 | 0.00 | 0.00 | 93 | 1018.0 |
| 20260506140119 | 0 | 0.0 | 0.0 | 0.00 | 0.00 | 0.00 | |||
| 20260506135958 | 47 | 100 | 9.0 | 10.0 | 0.00 | 0.00 | 0.00 | 94 | 1017.9 |
| 20260506135620 | 0 | 0.0 | 0.0 | 0.00 | 0.00 | 0.00 | |||
| 20260506135458 | 47 | 111 | 8.0 | 9.0 | 0.00 | 0.00 | 0.00 | 93 | 1018.0 |
| 20260506135120 | 0 | 0.0 | 0.0 | 0.00 | 0.00 | 0.00 | |||
| 20260506134957 | 47 | 110 | 9.0 | 11.0 | 0.00 | 0.00 | 0.00 | 93 | 1017.9 |
| 20260506134620 | 0 | 0.0 | 0.0 | 0.00 | 0.00 | 0.00 | |||
| 20260506134458 | 47 | 108 | 8.0 | 10.0 | 0.00 | 0.00 | 0.00 | 93 | 1018.0 |
| 20260506134120 | 0 | 0.0 | 0.0 | 0.00 | 0.00 | 0.00 | |||
| 20260506133958 | 47 | 110 | 8.0 | 9.0 | 0.00 | 0.00 | 0.00 | 93 | 1017.8 |
| 20260506133620 | 0 | 0.0 | 0.0 | 0.00 | 0.00 | 0.00 | |||
| 20260506133458 | 47 | 125 | 6.0 | 8.0 | 0.00 | 0.00 | 0.00 | 93 | 1017.9 |
| 20260506133121 | 0 | 0.0 | 0.0 | 0.00 | 0.00 | 0.00 | |||
| 20260506132958 | 47 | 118 | 7.0 | 11.0 | 0.00 | 0.00 | 0.00 | 93 | 1017.8 |
| 20260506132621 | 0 | 0.0 | 0.0 | 0.00 | 0.00 | 0.00 | |||
| 20260506132458 | 47 | 111 | 9.0 | 10.0 | 0.00 | 0.00 | 0.00 | 93 | 1017.7 |
| 20260506132117 | 0 | 0.0 | 0.0 | 0.00 | 0.00 | 0.00 | |||
| 20260506131957 | 47 | 137 | 6.0 | 7.0 | 0.00 | 0.00 | 0.00 | 93 | 1017.6 |
| 20260506131618 | 0 | 0.0 | 0.0 | 0.00 | 0.00 | 0.00 | |||
| 20260506131457 | 47 | 123 | 7.0 | 10.0 | 0.00 | 0.00 | 0.00 | 93 | 1017.5 |
| 20260506131118 | 0 | 0.0 | 0.0 | 0.00 | 0.00 | 0.00 | |||
| 20260506130957 | 47 | 110 | 9.0 | 10.0 | 0.00 | 0.00 | 0.00 | 93 | 1017.5 |
| 20260506130618 | 0 | 0.0 | 0.0 | 0.00 | 0.00 | 0.00 | |||
| 20260506130500 | 47 | 118 | 8.0 | 9.0 | 0.00 | 0.00 | 0.00 | 93 | 1017.3 |
| 20260506130117 | 0 | 0.0 | 0.0 | 0.00 | 0.00 | 0.00 | |||
| 20260506125957 | 47 | 115 | 9.0 | 11.0 | 0.00 | 0.00 | 0.00 | 93 | 1017.2 |
| 20260506125616 | 0 | 0.0 | 0.0 | 0.00 | 0.00 | 0.00 | |||
| 20260506125457 | 47 | 115 | 9.0 | 11.0 | 0.00 | 0.00 | 0.00 | 93 | 1017.4 |
| 20260506125117 | 0 | 0.0 | 0.0 | 0.00 | 0.00 | 0.00 | |||
| 20260506124958 | 47 | 122 | 7.0 | 9.0 | 0.00 | 0.00 | 0.00 | 92 | 1017.3 |
| 20260506124617 | 0 | 0.0 | 0.0 | 0.00 | 0.00 | 0.00 | |||
| 20260506124457 | 47 | 123 | 8.0 | 11.0 | 0.00 | 0.00 | 0.00 | 93 | 1017.4 |
| 20260506124117 | 0 | 0.0 | 0.0 | 0.00 | 0.00 | 0.00 | |||
| 20260506123957 | 48 | 116 | 9.0 | 12.0 | 0.00 | 0.00 | 0.00 | 92 | 1017.4 |
| 20260506123617 | 0 | 0.0 | 0.0 | 0.00 | 0.00 | 0.00 | |||
| 20260506123458 | 48 | 125 | 7.0 | 12.0 | 0.00 | 0.00 | 0.00 | 93 | 1017.2 |
| 20260506123116 | 0 | 0.0 | 0.0 | 0.00 | 0.00 | 0.00 | |||
| 20260506122957 | 48 | 112 | 7.0 | 11.0 | 0.00 | 0.00 | 0.00 | 92 | 1017.4 |
| 20260506122616 | 0 | 0.0 | 0.0 | 0.00 | 0.00 | 0.00 | |||
| 20260506122458 | 48 | 130 | 5.0 | 6.0 | 0.00 | 0.00 | 0.00 | 92 | 1017.5 |
| 20260506122116 | 0 | 0.0 | 0.0 | 0.00 | 0.00 | 0.00 | |||
| 20260506121958 | 48 | 139 | 6.0 | 8.0 | 0.00 | 0.00 | 0.00 | 92 | 1017.5 |
| 20260506121616 | 0 | 0.0 | 0.0 | 0.00 | 0.00 | 0.00 | |||
| 20260506121457 | 48 | 116 | 7.0 | 8.0 | 0.00 | 0.00 | 0.00 | 92 | 1017.6 |
| 20260506120958 | 48 | 134 | 4.0 | 5.0 | 0.00 | 0.00 | 0.00 | 92 | 1017.6 |
| 20260506120616 | 0 | 0.0 | 0.0 | 0.00 | 0.00 | 0.00 | |||
| 20260506120457 | 48 | 124 | 5.0 | 8.0 | 0.00 | 0.00 | 0.00 | 92 | 1017.5 |
| 20260506115958 | 48 | 108 | 6.0 | 9.0 | 0.00 | 0.00 | 0.00 | 92 | 1017.4 |
| 20260506115616 | 0 | 0.0 | 0.0 | 0.00 | 0.00 | 0.00 | |||
| 20260506115116 | 0 | 0.0 | 0.0 | 0.00 | 0.00 | 0.00 | |||
| 20260506115010 | 48 | 103 | 9.0 | 11.0 | 0.00 | 0.00 | 0.00 | 92 | 1017.1 |
| 20260506114616 | 0 | 0.0 | 0.0 | 0.00 | 0.00 | 0.00 | |||
| 20260506114457 | 48 | 104 | 10.0 | 11.0 | 0.00 | 0.00 | 0.00 | 92 | 1017.0 |
| 20260506114116 | 0 | 0.0 | 0.0 | 0.00 | 0.00 | 0.00 | |||
| 20260506113957 | 48 | 106 | 10.0 | 12.0 | 0.00 | 0.00 | 0.00 | 92 | 1017.0 |
| 20260506113617 | 0 | 0.0 | 0.0 | 0.00 | 0.00 | 0.00 | |||
| 20260506113457 | 48 | 104 | 10.0 | 14.0 | 0.00 | 0.00 | 0.00 | 92 | 1016.9 |
| 20260506113116 | 0 | 0.0 | 0.0 | 0.00 | 0.00 | 0.00 | |||
| 20260506112957 | 48 | 104 | 9.0 | 13.0 | 0.00 | 0.00 | 0.00 | 92 | 1016.8 |
| 20260506112617 | 0 | 0.0 | 0.0 | 0.00 | 0.00 | 0.00 | |||
| 20260506112457 | 49 | 99 | 12.0 | 15.0 | 0.00 | 0.00 | 0.00 | 92 | 1016.7 |
| 20260506111958 | 49 | 108 | 10.0 | 12.0 | 0.00 | 0.00 | 0.00 | 91 | 1016.8 |
| 20260506111614 | 0 | 0.0 | 0.0 | 0.00 | 0.00 | 0.00 | |||
| 20260506111457 | 49 | 99 | 9.0 | 11.0 | 0.00 | 0.00 | 0.00 | 92 | 1016.9 |
| 20260506111115 | 0 | 0.0 | 0.0 | 0.00 | 0.00 | 0.00 | |||
| 20260506110957 | 49 | 98 | 11.0 | 14.0 | 0.00 | 0.00 | 0.00 | 92 | 1016.7 |
| 20260506110615 | 0 | 0.0 | 0.0 | 0.00 | 0.00 | 0.00 | |||
| 20260506110457 | 49 | 94 | 13.0 | 15.0 | 0.00 | 0.00 | 0.00 | 92 | 1016.7 |
| 20260506105957 | 49 | 109 | 9.0 | 11.0 | 0.00 | 0.00 | 0.00 | 92 | 1016.7 |
| 20260506105614 | 0 | 0.0 | 0.0 | 0.00 | 0.00 | 0.00 | |||
| 20260506105458 | 49 | 114 | 9.0 | 11.0 | 0.00 | 0.00 | 0.00 | 92 | 1016.7 |
| 20260506105114 | 0 | 0.0 | 0.0 | 0.00 | 0.00 | 0.00 | |||
| 20260506104957 | 49 | 119 | 7.0 | 9.0 | 0.00 | 0.00 | 0.00 | 92 | 1016.5 |
| 20260506104616 | 0 | 0.0 | 0.0 | 0.00 | 0.00 | 0.00 | |||
| 20260506104459 | 49 | 105 | 10.0 | 14.0 | 0.00 | 0.00 | 0.00 | 92 | 1016.4 |
| 20260506103957 | 49 | 119 | 7.0 | 9.0 | 0.00 | 0.00 | 0.00 | 91 | 1016.6 |
| 20260506103615 | 0 | 0.0 | 0.0 | 0.00 | 0.00 | 0.00 | |||
| 20260506103457 | 49 | 100 | 11.0 | 14.0 | 0.00 | 0.00 | 0.00 | 91 | 1016.4 |
| 20260506103115 | 0 | 0.0 | 0.0 | 0.00 | 0.00 | 0.00 | |||
| 20260506102958 | 49 | 104 | 10.0 | 14.0 | 0.00 | 0.00 | 0.00 | 91 | 1016.4 |
| 20260506102615 | 0 | 0.0 | 0.0 | 0.00 | 0.00 | 0.00 | |||
| 20260506102457 | 49 | 103 | 9.0 | 11.0 | 0.00 | 0.00 | 0.00 | 91 | 1016.4 |
| 20260506102111 | 0 | 0.0 | 0.0 | 0.00 | 0.00 | 0.00 | |||
| 20260506101957 | 49 | 101 | 10.0 | 15.0 | 0.00 | 0.00 | 0.00 | 91 | 1016.2 |
| 20260506101609 | 0 | 0.0 | 0.0 | 0.00 | 0.00 | 0.00 | |||
| 20260506101457 | 49 | 107 | 10.0 | 13.0 | 0.00 | 0.00 | 0.00 | 91 | 1016.2 |
| 20260506101108 | 0 | 0.0 | 0.0 | 0.00 | 0.00 | 0.00 | |||
| 20260506100958 | 49 | 101 | 12.0 | 14.0 | 0.00 | 0.00 | 0.00 | 91 | 1016.2 |
| 20260506100609 | 0 | 0.0 | 0.0 | 0.00 | 0.00 | 0.00 | |||
| 20260506100458 | 50 | 106 | 10.0 | 12.0 | 0.00 | 0.00 | 0.00 | 90 | 1016.2 |
| 20260506100109 | 0 | 0.0 | 0.0 | 0.00 | 0.00 | 0.00 | |||
| 20260506095957 | 50 | 103 | 11.0 | 15.0 | 0.00 | 0.00 | 0.00 | 90 | 1016.1 |
| 20260506095457 | 50 | 109 | 10.0 | 13.0 | 0.00 | 0.00 | 0.00 | 90 | 1016.0 |
| 20260506095109 | 0 | 0.0 | 0.0 | 0.00 | 0.00 | 0.00 | |||
| 20260506094957 | 50 | 107 | 10.0 | 15.0 | 0.00 | 0.00 | 0.00 | 89 | 1015.9 |
| 20260506094609 | 0 | 0.0 | 0.0 | 0.00 | 0.00 | 0.00 | |||
| 20260506094457 | 50 | 114 | 9.0 | 13.0 | 0.00 | 0.00 | 0.00 | 89 | 1016.0 |
| 20260506094109 | 0 | 0.0 | 0.0 | 0.00 | 0.00 | 0.00 | |||
| 20260506093957 | 50 | 97 | 11.0 | 13.0 | 0.00 | 0.00 | 0.00 | 89 | 1015.9 |
| 20260506093609 | 0 | 0.0 | 0.0 | 0.00 | 0.00 | 0.00 | |||
| 20260506093458 | 50 | 102 | 11.0 | 15.0 | 0.00 | 0.00 | 0.00 | 89 | 1015.9 |
| 20260506093109 | 0 | 0.0 | 0.0 | 0.00 | 0.00 | 0.00 | |||
| 20260506092958 | 50 | 112 | 9.0 | 12.0 | 0.00 | 0.00 | 0.00 | 89 | 1015.9 |
| 20260506092607 | 0 | 0.0 | 0.0 | 0.00 | 0.00 | 0.00 | |||
| 20260506092457 | 50 | 108 | 10.0 | 11.0 | 0.00 | 0.00 | 0.00 | 89 | 1015.9 |
| 20260506091957 | 50 | 105 | 10.0 | 11.0 | 0.00 | 0.00 | 0.00 | 89 | 1015.9 |
| 20260506091604 | 0 | 0.0 | 0.0 | 0.00 | 0.00 | 0.00 | |||
| 20260506091457 | 50 | 117 | 9.0 | 11.0 | 0.00 | 0.00 | 0.00 | 89 | 1015.8 |
| 20260506091104 | 0 | 0.0 | 0.0 | 0.00 | 0.00 | 0.00 | |||
| 20260506090959 | 50 | 111 | 9.0 | 11.0 | 0.00 | 0.00 | 0.00 | 88 | 1015.8 |
| 20260506090457 | 50 | 118 | 8.0 | 11.0 | 0.00 | 0.00 | 0.00 | 88 | 1015.7 |
| 20260506090103 | 0 | 0.0 | 0.0 | 0.00 | 0.00 | 0.00 | |||
| 20260506085957 | 50 | 105 | 12.0 | 15.0 | 0.00 | 0.00 | 0.00 | 88 | 1015.8 |
| 20260506085604 | 0 | 0.0 | 0.0 | 0.00 | 0.00 | 0.00 | |||
| 20260506085457 | 50 | 107 | 10.0 | 13.0 | 0.00 | 0.00 | 0.00 | 89 | 1015.7 |
| 20260506085104 | 0 | 0.0 | 0.0 | 0.00 | 0.00 | 0.00 | |||
| 20260506084957 | 50 | 109 | 10.0 | 13.0 | 0.00 | 0.00 | 0.00 | 89 | 1015.7 |
| 20260506084604 | 0 | 0.0 | 0.0 | 0.00 | 0.00 | 0.00 | |||
| 20260506084458 | 50 | 110 | 10.0 | 12.0 | 0.00 | 0.00 | 0.00 | 89 | 1015.7 |
| 20260506084104 | 0 | 0.0 | 0.0 | 0.00 | 0.00 | 0.00 | |||
| 20260506083957 | 51 | 106 | 10.0 | 13.0 | 0.00 | 0.00 | 0.00 | 88 | 1015.7 |
| 20260506083604 | 0 | 0.0 | 0.0 | 0.00 | 0.00 | 0.00 | |||
| 20260506083457 | 51 | 110 | 9.0 | 13.0 | 0.00 | 0.00 | 0.00 | 89 | 1015.8 |
| 20260506082957 | 51 | 105 | 12.0 | 15.0 | 0.00 | 0.00 | 0.00 | 89 | 1015.7 |
| 20260506082605 | 0 | 0.0 | 0.0 | 0.00 | 0.00 | 0.00 | |||
| 20260506082457 | 51 | 116 | 9.0 | 11.0 | 0.00 | 0.00 | 0.00 | 89 | 1015.7 |
| 20260506082103 | 0 | 0.0 | 0.0 | 0.00 | 0.00 | 0.00 | |||
| 20260506081957 | 51 | 113 | 9.0 | 11.0 | 0.00 | 0.00 | 0.00 | 89 | 1015.7 |
| 20260506081600 | 0 | 0.0 | 0.0 | 0.00 | 0.00 | 0.00 | |||
| 20260506081457 | 51 | 107 | 10.0 | 16.0 | 0.00 | 0.00 | 0.00 | 89 | 1015.8 |
| 20260506080957 | 51 | 98 | 10.0 | 13.0 | 0.00 | 0.00 | 0.00 | 89 | 1015.7 |
| 20260506080600 | 0 | 0.0 | 0.0 | 0.00 | 0.00 | 0.00 | |||
| 20260506080457 | 51 | 110 | 9.0 | 12.0 | 0.00 | 0.00 | 0.00 | 89 | 1015.8 |
| 20260506073457 | 51 | 122 | 7.0 | 10.0 | 0.00 | 0.00 | 0.00 | 88 | 1015.4 |
| 20260506073101 | 0 | 0.0 | 0.0 | 0.00 | 0.00 | 0.00 | |||
| 20260506072957 | 52 | 116 | 9.0 | 10.0 | 0.00 | 0.00 | 0.00 | 88 | 1015.4 |
| 20260506072559 | 0 | 0.0 | 0.0 | 0.00 | 0.00 | 0.00 | |||
| 20260506072457 | 52 | 111 | 9.0 | 11.0 | 0.00 | 0.00 | 0.00 | 88 | 1015.4 |
| 20260506072100 | 0 | 0.0 | 0.0 | 0.00 | 0.00 | 0.00 | |||
| 20260506071957 | 52 | 117 | 9.0 | 13.0 | 0.00 | 0.00 | 0.00 | 88 | 1015.4 |
| 20260506071558 | 0 | 0.0 | 0.0 | 0.00 | 0.00 | 0.00 | |||
| 20260506071457 | 52 | 119 | 8.0 | 10.0 | 0.00 | 0.00 | 0.00 | 88 | 1015.4 |
| 20260506071058 | 0 | 0.0 | 0.0 | 0.00 | 0.00 | 0.00 | |||
| 20260506070957 | 52 | 123 | 7.0 | 9.0 | 0.00 | 0.00 | 0.00 | 88 | 1015.4 |
| 20260506070559 | 0 | 0.0 | 0.0 | 0.00 | 0.00 | 0.00 | |||
| 20260506070457 | 52 | 117 | 7.0 | 9.0 | 0.00 | 0.00 | 0.00 | 88 | 1015.4 |
| 20260506062459 | 53 | 113 | 9.0 | 11.0 | 0.00 | 0.00 | 0.00 | 86 | 1015.1 |
| 20260506062059 | 0 | 0.0 | 0.0 | 0.00 | 0.00 | 0.00 | |||
| 20260506061958 | 53 | 116 | 9.0 | 11.0 | 0.00 | 0.00 | 0.00 | 86 | 1014.9 |
| 20260506061556 | 0 | 0.0 | 0.0 | 0.00 | 0.00 | 0.00 | |||
| 20260506061457 | 53 | 113 | 9.0 | 10.0 | 0.00 | 0.00 | 0.00 | 86 | 1015.0 |
| 20260506060957 | 53 | 111 | 9.0 | 10.0 | 0.00 | 0.00 | 0.00 | 86 | 1015.1 |
| 20260506060557 | 0 | 0.0 | 0.0 | 0.00 | 0.00 | 0.00 | |||
| 20260506060457 | 53 | 109 | 9.0 | 11.0 | 0.00 | 0.00 | 0.00 | 86 | 1015.0 |
| 20260506051054 | 0 | 0.0 | 0.0 | 0.00 | 0.00 | 0.00 | |||
| 20260506050957 | 54 | 110 | 9.0 | 10.0 | 0.00 | 0.00 | 0.00 | 85 | 1015.0 |
| 20260506050459 | 54 | 112 | 8.0 | 10.0 | 0.00 | 0.00 | 0.00 | 85 | 1015.0 |
| 20260506045054 | 0 | 0.0 | 0.0 | 0.00 | 0.00 | 0.00 | |||
| 20260506044957 | 54 | 113 | 8.0 | 10.0 | 0.00 | 0.00 | 0.00 | 84 | 1014.9 |
| 20260506044555 | 0 | 0.0 | 0.0 | 0.00 | 0.00 | 0.00 | |||
| 20260506044457 | 54 | 110 | 8.0 | 10.0 | 0.00 | 0.00 | 0.00 | 84 | 1014.8 |
| 20260506044055 | 0 | 0.0 | 0.0 | 0.00 | 0.00 | 0.00 | |||
| 20260506043958 | 54 | 113 | 9.0 | 10.0 | 0.00 | 0.00 | 0.00 | 84 | 1014.7 |
| 20260506043554 | 0 | 0.0 | 0.0 | 0.00 | 0.00 | 0.00 | |||
| 20260506043458 | 54 | 113 | 8.0 | 11.0 | 0.00 | 0.00 | 0.00 | 84 | 1014.7 |
| 20260506043055 | 0 | 0.0 | 0.0 | 0.00 | 0.00 | 0.00 | |||
| 20260506042957 | 54 | 111 | 7.0 | 9.0 | 0.00 | 0.00 | 0.00 | 84 | 1014.7 |
| 20260506042555 | 0 | 0.0 | 0.0 | 0.00 | 0.00 | 0.00 | |||
| 20260506042458 | 55 | 107 | 7.0 | 9.0 | 0.00 | 0.00 | 0.00 | 84 | 1014.6 |
| 20260506041957 | 55 | 109 | 7.0 | 10.0 | 0.00 | 0.00 | 0.00 | 83 | 1014.6 |
| 20260506041553 | 0 | 0.0 | 0.0 | 0.00 | 0.00 | 0.00 | |||
| 20260506041457 | 55 | 109 | 7.0 | 12.0 | 0.00 | 0.00 | 0.00 | 83 | 1014.5 |
| 20260506041052 | 0 | 0.0 | 0.0 | 0.00 | 0.00 | 0.00 | |||
| 20260506040957 | 55 | 104 | 8.0 | 10.0 | 0.00 | 0.00 | 0.00 | 83 | 1014.6 |
| 20260506040552 | 0 | 0.0 | 0.0 | 0.00 | 0.00 | 0.00 | |||
| 20260506040457 | 55 | 112 | 7.0 | 9.0 | 0.00 | 0.00 | 0.00 | 83 | 1014.5 |
| 20260506040053 | 0 | 0.0 | 0.0 | 0.00 | 0.00 | 0.00 | |||
| 20260506035957 | 55 | 111 | 6.0 | 9.0 | 0.00 | 0.00 | 0.00 | 83 | 1014.4 |
| 20260506035552 | 0 | 0.0 | 0.0 | 0.00 | 0.00 | 0.00 | |||
| 20260506035457 | 55 | 115 | 7.0 | 8.0 | 0.00 | 0.00 | 0.00 | 83 | 1014.4 |
| 20260506035053 | 0 | 0.0 | 0.0 | 0.00 | 0.00 | 0.00 | |||
| 20260506034958 | 55 | 110 | 8.0 | 9.0 | 0.00 | 0.00 | 0.00 | 83 | 1014.5 |
| 20260506034553 | 0 | 0.0 | 0.0 | 0.00 | 0.00 | 0.00 | |||
| 20260506034458 | 55 | 116 | 5.0 | 7.0 | 0.00 | 0.00 | 0.00 | 82 | 1014.5 |
| 20260506034052 | 0 | 0.0 | 0.0 | 0.00 | 0.00 | 0.00 | |||
| 20260506033958 | 55 | 113 | 5.0 | 9.0 | 0.00 | 0.00 | 0.00 | 82 | 1014.4 |
| 20260506033457 | 55 | 110 | 8.0 | 9.0 | 0.00 | 0.00 | 0.00 | 82 | 1014.4 |
| 20260506033053 | 0 | 0.0 | 0.0 | 0.00 | 0.00 | 0.00 | |||
| 20260506032957 | 55 | 103 | 9.0 | 12.0 | 0.00 | 0.00 | 0.00 | 82 | 1014.4 |
| 20260506032553 | 0 | 0.0 | 0.0 | 0.00 | 0.00 | 0.00 | |||
| 20260506032457 | 55 | 96 | 8.0 | 13.0 | 0.00 | 0.00 | 0.00 | 82 | 1014.4 |
| 20260506031957 | 55 | 109 | 7.0 | 9.0 | 0.00 | 0.00 | 0.00 | 82 | 1014.5 |